User: anonymous
Location: Chenango Forks
(42.2242°N, 75.8278°W)
Time: 07:42:56
(UTC-04:00)
Language:

Okean 3 Rocket - Orbit

View from above orbital plane
View from above orbital plane
View from above satellite
View from above satellite

Ground track
Ground track

The orbit data is extracted from the following two-line orbital elements,

1 21398U 91039B   14113.78298111  .00000474  00000-0  60705-4 0  7199
2 21398 082.5253 216.7300 0021054 356.2784 117.6835 14.79131010233811
Epoch (UTC): 23 April 2014 18:47:29
Eccentricity: 0.0021054
inclination: 82.5253°
perigee height: 617 km
apogee height: 647 km
right ascension of ascending node: 216.7300°
argument of perigee: 356.2784°
revolutions per day: 14.79131010
mean anomaly at epoch: 117.6835°
orbit number at epoch: 23381

The dashed part of the orbit path shows where the satellite is in the earth's shadow,  

DLR